| time (UTC) | temp C | wind direction | speed KPH | gust KPH | rain 1hr cm | rain 24hr cm | rain mn cm | humidity % | barometer mb |
| 20260506181506 | 20 | 288 | 0.0 | 4.8 | 0.00 | 0.00 | 0.00 | 68 | 1020.5 |
| 20260506180003 | 20 | 257 | 0.0 | 6.4 | 0.00 | 0.00 | 0.00 | 71 | 1020.5 |
| 20260506174600 | 19 | 274 | 0.0 | 4.8 | 0.00 | 0.00 | 0.00 | 71 | 1020.5 |
| 20260506173100 | 19 | 23 | 0.0 | 4.8 | 0.00 | 0.00 | 0.00 | 72 | 1020.6 |
| 20260506171606 | 18 | 254 | 0.0 | 8.0 | 0.00 | 0.00 | 0.00 | 73 | 1020.6 |
| 20260506170056 | 17 | 279 | 0.0 | 3.2 | 0.00 | 0.00 | 0.00 | 75 | 1020.7 |
| 20260506164549 | 17 | 248 | 0.0 | 4.8 | 0.00 | 0.00 | 0.00 | 77 | 1020.7 |
| 20260506163046 | 16 | 147 | 0.0 | 4.8 | 0.00 | 0.00 | 0.00 | 79 | 1020.8 |
| 20260506161544 | 16 | 22 | 1.6 | 3.2 | 0.00 | 0.00 | 0.00 | 78 | 1020.7 |
| 20260506160045 | 15 | 181 | 0.0 | 3.2 | 0.00 | 0.00 | 0.00 | 83 | 1020.6 |
| 20260506154534 | 14 | 304 | 0.0 | 3.2 | 0.00 | 0.00 | 0.00 | 85 | 1020.7 |
| 20260506153031 | 13 | 238 | 0.0 | 0.0 | 0.00 | 0.00 | 0.00 | 87 | 1020.6 |
| 20260506151530 | 13 | 215 | 0.0 | 0.0 | 0.00 | 0.00 | 0.00 | 88 | 1020.5 |
| 20260506150028 | 13 | 210 | 0.0 | 0.0 | 0.00 | 0.00 | 0.00 | 90 | 1020.6 |
| 20260506144522 | 12 | 210 | 0.0 | 0.0 | 0.00 | 0.00 | 0.00 | 91 | 1020.6 |
| 20260506143021 | 12 | 210 | 0.0 | 0.0 | 0.00 | 0.00 | 0.00 | 92 | 1020.5 |
| 20260506141518 | 12 | 210 | 0.0 | 0.0 | 0.00 | 0.00 | 0.00 | 93 | 1020.4 |
| 20260506140021 | 12 | 210 | 0.0 | 0.0 | 0.00 | 0.00 | 0.00 | 93 | 1020.2 |
| 20260506134515 | 11 | 210 | 0.0 | 0.0 | 0.00 | 0.00 | 0.00 | 93 | 1020.1 |
| 20260506133016 | 11 | 210 | 0.0 | 0.0 | 0.00 | 0.00 | 0.00 | 93 | 1020.1 |
| 20260506131516 | 11 | 210 | 0.0 | 0.0 | 0.00 | 0.00 | 0.00 | 93 | 1020.1 |
| 20260506130014 | 11 | 210 | 0.0 | 0.0 | 0.00 | 0.00 | 0.00 | 93 | 1019.9 |
| 20260506124509 | 11 | 210 | 0.0 | 0.0 | 0.00 | 0.00 | 0.00 | 92 | 1019.8 |
| 20260506123009 | 11 | 210 | 0.0 | 0.0 | 0.00 | 0.00 | 0.00 | 92 | 1019.8 |
| 20260506121507 | 11 | 210 | 0.0 | 0.0 | 0.00 | 0.00 | 0.00 | 92 | 1019.8 |
| 20260506120007 | 11 | 210 | 0.0 | 0.0 | 0.00 | 0.00 | 0.00 | 92 | 1019.6 |
| 20260506114522 | 11 | 210 | 0.0 | 0.0 | 0.00 | 0.00 | 0.00 | 92 | 1019.6 |
| 20260506113005 | 11 | 210 | 0.0 | 0.0 | 0.00 | 0.00 | 0.00 | 92 | 1019.5 |
| 20260506111503 | 11 | 210 | 0.0 | 0.0 | 0.00 | 0.00 | 0.00 | 92 | 1019.5 |
| 20260506110003 | 11 | 210 | 0.0 | 0.0 | 0.00 | 0.00 | 0.00 | 92 | 1019.3 |
| 20260506104608 | 11 | 210 | 0.0 | 0.0 | 0.00 | 0.03 | 0.00 | 92 | 1019.2 |
| 20260506103100 | 11 | 210 | 0.0 | 0.0 | 0.00 | 0.03 | 0.00 | 92 | 1019.2 |
| 20260506101559 | 12 | 210 | 0.0 | 0.0 | 0.00 | 0.03 | 0.00 | 92 | 1019.1 |
| 20260506100114 | 12 | 210 | 0.0 | 1.6 | 0.00 | 0.03 | 0.00 | 92 | 1019.0 |
| 20260506094556 | 12 | 210 | 0.0 | 1.6 | 0.00 | 0.03 | 0.00 | 92 | 1019.0 |
| 20260506093059 | 12 | 210 | 0.0 | 1.6 | 0.00 | 0.03 | 0.00 | 92 | 1019.0 |
| 20260506091557 | 12 | 210 | 0.0 | 1.6 | 0.00 | 0.03 | 0.00 | 92 | 1019.1 |
| 20260506090055 | 12 | 210 | 0.0 | 1.6 | 0.00 | 0.03 | 0.00 | 92 | 1019.2 |
| 20260506084602 | 12 | 210 | 0.0 | 0.0 | 0.00 | 0.03 | 0.00 | 91 | 1019.1 |
| 20260506083054 | 12 | 210 | 0.0 | 0.0 | 0.00 | 0.03 | 0.00 | 91 | 1019.1 |
| 20260506081552 | 12 | 210 | 0.0 | 0.0 | 0.00 | 0.03 | 0.00 | 91 | 1019.1 |
| 20260506073049 | 12 | 210 | 0.0 | 0.0 | 0.00 | 0.13 | 0.00 | 91 | 1018.8 |
| 20260506071555 | 12 | 210 | 0.0 | 0.0 | 0.00 | 0.13 | 0.00 | 91 | 1018.8 |
| 20260506061541 | 12 | 218 | 0.0 | 0.0 | 0.00 | 0.48 | 0.13 | 91 | 1018.3 |
| 20260506044634 | 12 | 214 | 0.0 | 1.6 | 0.00 | 0.58 | 0.13 | 89 | 1017.8 |
| 20260506043032 | 12 | 223 | 0.0 | 1.6 | 0.00 | 0.58 | 0.13 | 89 | 1017.6 |
| 20260506041530 | 12 | 255 | 0.0 | 1.6 | 0.00 | 0.58 | 0.13 | 89 | 1017.4 |
| 20260506040028 | 12 | 255 | 0.0 | 3.2 | 0.00 | 0.58 | 0.13 | 89 | 1017.3 |
| 20260506034527 | 12 | 201 | 0.0 | 0.0 | 0.00 | 0.71 | 0.13 | 88 | 1017.1 |
| 20260506033033 | 12 | 124 | 0.0 | 3.2 | 0.00 | 0.71 | 0.13 | 87 | 1017.0 |
| 20260506031531 | 13 | 108 | 0.0 | 1.6 | 0.00 | 0.71 | 0.13 | 86 | 1016.5 |
| 20260506030042 | 13 | 199 | 0.0 | 1.6 | 0.00 | 0.71 | 0.13 | 85 | 1016.3 |
| 20260506024526 | 13 | 196 | 0.0 | 0.0 | 0.00 | 0.91 | 0.13 | 84 | 1016.4 |
| 20260506023019 | 13 | 114 | 0.0 | 4.8 | 0.00 | 0.91 | 0.13 | 83 | 1016.2 |
| 20260506021519 | 14 | 214 | 0.0 | 4.8 | 0.00 | 0.91 | 0.13 | 81 | 1016.2 |
| 20260506020016 | 15 | 207 | 0.0 | 4.8 | 0.00 | 0.91 | 0.13 | 79 | 1015.9 |
| 20260506014515 | 15 | 145 | 0.0 | 9.7 | 0.00 | 1.14 | 0.13 | 77 | 1015.8 |
| 20260506013015 | 15 | 118 | 0.0 | 4.8 | 0.00 | 1.14 | 0.13 | 76 | 1015.8 |
| 20260506011522 | 15 | 229 | 0.0 | 6.4 | 0.00 | 1.14 | 0.13 | 76 | 1015.6 |
| 20260506010014 | 16 | 177 | 1.6 | 8.0 | 0.00 | 1.14 | 0.13 | 75 | 1015.6 |
| 20260506004524 | 16 | 276 | 4.8 | 12.9 | 0.00 | 1.35 | 0.13 | 74 | 1015.6 |
| 20260506003013 | 17 | 304 | 1.6 | 8.0 | 0.00 | 1.35 | 0.13 | 72 | 1015.4 |
| 20260506001513 | 17 | 257 | 1.6 | 9.7 | 0.00 | 1.35 | 0.13 | 72 | 1015.4 |
| 20260506000017 | 17 | 312 | 0.0 | 4.8 | 0.00 | 1.35 | 0.13 | 73 | 1015.2 |
| 20260505234511 | 17 | 292 | 1.6 | 6.4 | 0.00 | 1.50 | 0.13 | 74 | 1015.3 |
| 20260505233010 | 16 | 96 | 3.2 | 8.0 | 0.00 | 1.50 | 0.13 | 73 | 1015.2 |
| 20260505231511 | 16 | 4 | 1.6 | 6.4 | 0.00 | 1.50 | 0.13 | 74 | 1015.3 |
| 20260505230012 | 16 | 253 | 0.0 | 9.7 | 0.00 | 1.50 | 0.13 | 74 | 1015.2 |
| 20260505224508 | 17 | 202 | 1.6 | 11.3 | 0.00 | 1.52 | 0.13 | 73 | 1015.2 |
| 20260505223008 | 17 | 15 | 0.0 | 6.4 | 0.00 | 1.52 | 0.13 | 74 | 1015.2 |
| 20260505221506 | 17 | 305 | 0.0 | 4.8 | 0.00 | 1.52 | 0.13 | 73 | 1015.3 |
| 20260505220008 | 17 | 128 | 1.6 | 6.4 | 0.00 | 1.52 | 0.13 | 72 | 1015.3 |
| 20260505214505 | 17 | 262 | 0.0 | 4.8 | 0.00 | 1.52 | 0.13 | 72 | 1015.4 |
| 20260505213006 | 17 | 302 | 0.0 | 6.4 | 0.00 | 1.52 | 0.13 | 72 | 1015.5 |
| 20260505211503 | 17 | 88 | 0.0 | 8.0 | 0.00 | 1.52 | 0.13 | 73 | 1015.6 |
| 20260505210003 | 17 | 127 | 0.0 | 6.4 | 0.00 | 1.52 | 0.13 | 73 | 1015.7 |
| 20260505204502 | 17 | 188 | 0.0 | 6.4 | 0.00 | 1.52 | 0.13 | 73 | 1015.6 |
| 20260505203059 | 17 | 97 | 0.0 | 3.2 | 0.00 | 1.52 | 0.13 | 75 | 1015.6 |
| 20260505201558 | 17 | 126 | 0.0 | 4.8 | 0.00 | 1.52 | 0.13 | 74 | 1015.7 |
| 20260505200058 | 17 | 270 | 0.0 | 4.8 | 0.00 | 1.52 | 0.13 | 76 | 1015.8 |
| 20260505194600 | 17 | 280 | 1.6 | 6.4 | 0.00 | 1.52 | 0.13 | 75 | 1015.8 |
| 20260505193124 | 16 | 21 | 0.0 | 4.8 | 0.00 | 1.52 | 0.13 | 74 | 1015.9 |
| 20260505191604 | 17 | 226 | 0.0 | 8.0 | 0.00 | 1.52 | 0.13 | 75 | 1015.9 |
| 20260505190054 | 17 | 14 | 1.6 | 6.4 | 0.00 | 1.52 | 0.13 | 73 | 1015.8 |
| 20260505184555 | 16 | 299 | 1.6 | 6.4 | 0.00 | 1.52 | 0.13 | 75 | 1015.8 |
| 20260505183051 | 16 | 83 | 0.0 | 4.8 | 0.00 | 1.52 | 0.13 | 76 | 1015.8 |